Location: Unspecified
(0.0000°N, 0.0000°E)
Time: 17:32:33
(UTC+00:00)

Kosmos-2213 - Pass Details

Date: 20 November 2025
Orbit: 1410 x 1414 km, 82.6° (Epoch: 04 December)

Event Time Altitude Azimuth Distance (km) Brightness Sun altitude
Rises 04:51:35 0° 205° (SSW) 4,484 9.9 -12.7°
Reaches altitude 10° 04:54:50 10° 215° (SW) 3,506 9.2 -11.9°
Maximum altitude 05:01:50 30° 273° (W) 2,302 7.9 -10.3°
Drops below altitude 10° 05:08:52 10° 331° (NNW) 3,499 8.9 -8.6°
Sets 05:12:09 0° 341° (NNW) 4,473 9.6 -7.9°
